Location: Baix
(44.7118°N, 4.7648°E)
Time: 02:40:17
(UTC+00:00)

COBE Rocket - Pass Details

Date: 07 August 2020
Orbit: 681 x 781 km, 97.1° (Epoch: 27 September)

Event Time Altitude Azimuth Distance (km) Brightness Sun altitude
Exits shadow 01:47:33 43° 146° (SE) 962 4.3 -23.1°
Maximum altitude 01:49:00 71° 75° (ENE) 727 3.9 -22.9°
Drops below altitude 10° 01:53:38 10° 352° (N) 2,135 7.0 -22.5°
Sets 01:55:53 0° 351° (N) 3,053 7.8 -22.3°
